GFSNE_250_spd_336.txt.gz
Wind_Speed
28 27 25 30 37 26 24 27 26 29 29 32 34 34 33 27 25 24 21 19 20 18 14 14 12 9 6 2 2 4 4 7 9 9 9 9 8 7
23 16 17 16 19 25 22 20 25 30 31 31 30 31 31 28 26 27 23 20 20 20 20 16 18 17 11 9 6 6 6 5 6 8 8 8 9 9
22 26 25 21 29 26 22 20 22 23 28 29 26 25 30 29 25 26 25 24 22 22 23 23 22 22 21 18 13 13 11 7 6 6 6 7 6 6
34 32 34 23 30 29 26 27 23 19 22 23 28 31 33 31 31 28 24 25 25 25 26 26 26 28 22 16 18 21 18 12 10 9 7 4 4 3
42 42 41 36 33 29 21 25 18 19 21 17 22 26 29 32 34 28 22 19 22 25 25 27 23 26 26 31 26 27 21 20 16 10 8 8 7 6
48 48 48 40 37 33 27 25 23 21 19 20 20 22 31 30 34 32 23 20 19 19 21 21 21 25 35 34 35 36 26 25 22 17 14 12 10 9
53 49 49 44 40 39 34 27 28 25 22 20 22 26 23 33 33 30 22 17 14 14 13 15 11 17 36 37 41 44 31 29 26 23 19 18 16 14
57 55 56 50 45 45 48 40 33 29 28 24 24 28 28 31 31 31 20 12 12 12 13 12 12 14 28 44 39 39 34 35 28 25 23 23 20 17
52 60 58 58 53 51 53 47 40 36 32 29 25 26 36 32 32 32 28 15 10 8 5 9 13 13 14 36 43 40 40 40 36 32 26 28 25 22
51 54 58 64 61 55 51 48 43 44 38 35 25 28 35 33 33 30 32 25 15 13 10 7 9 4 7 14 20 25 30 33 33 33 32 29 28 25
56 54 57 64 67 59 56 49 49 47 44 42 35 29 31 34 31 27 28 30 21 19 16 16 13 9 13 19 24 22 19 30 36 36 36 34 29 28
55 59 55 56 64 66 62 57 52 50 48 43 46 40 37 36 36 32 37 32 30 23 19 21 19 14 16 17 26 27 29 25 23 28 30 32 33 34
51 56 60 58 57 61 62 66 61 54 54 47 49 49 45 42 41 40 39 37 41 37 28 21 20 20 18 16 22 26 27 25 28 31 31 33 34 34
59 55 56 59 61 61 63 63 62 62 59 52 51 53 53 49 43 41 43 42 42 44 40 28 22 23 26 27 22 23 24 25 28 30 34 34 35 37
61 64 61 56 60 64 66 67 66 65 63 61 58 58 54 57 53 45 45 46 43 48 44 33 30 31 30 34 33 30 30 31 31 32 32 34 35 36
60 62 63 64 64 62 65 70 75 75 73 71 70 66 61 59 57 54 51 47 52 52 49 45 41 39 37 38 45 39 33 37 38 39 39 39 40 42
59 60 62 64 66 67 67 65 71 76 78 79 79 78 74 67 64 60 59 54 55 58 54 45 50 47 44 45 51 51 42 42 46 46 48 49 49 49
59 59 61 63 64 65 67 69 69 68 73 79 81 81 81 78 72 70 66 61 59 60 54 53 54 58 57 52 54 56 56 55 53 48 48 54 53 54
63 62 61 62 62 63 64 65 67 70 70 69 73 79 83 83 81 79 75 70 68 67 70 67 67 61 64 65 60 59 60 61 58 59 57 59 58 63
67 66 65 65 64 64 63 63 64 66 68 70 70 72 78 80 80 81 81 79 76 73 72 69 67 61 64 68 67 67 63 58 60 60 61 58 54 56
69 69 69 69 67 67 68 68 68 70 70 69 70 75 77 78 80 84 85 84 83 81 79 78 74 73 72 71 71 71 70 69 66 70 69 69 74 76
73 71 68 66 65 65 67 69 72 75 77 76 76 76 78 80 79 82 85 87 89 90 86 84 84 85 84 83 83 82 82 83 84 84 83 83 84 82
67 69 68 64 63 63 69 74 76 77 78 79 79 83 84 79 82 82 83 86 89 90 91 89 86 86 86 84 87 87 88 90 89 89 90 90 88 88

GFSNE_250_spd_339.txt.gz
Wind_Speed
25 26 22 23 27 20 18 18 17 17 16 17 21 23 23 24 24 26 24 19 16 18 16 14 14 13 11 5 5 6 1 1 4 7 6 5 5 5
27 25 24 26 29 26 22 18 21 21 19 14 13 19 20 23 24 26 26 25 22 19 19 18 17 17 16 14 8 9 7 5 4 6 8 8 8 7
31 27 21 28 28 25 27 23 21 19 16 14 11 15 21 25 25 26 28 27 27 25 23 20 21 20 21 21 18 13 12 9 8 8 8 9 8 7
33 32 31 32 31 27 28 28 20 19 14 15 18 18 15 18 25 25 29 30 30 28 26 25 24 23 25 25 27 23 16 16 14 12 10 8 6 6
42 39 41 40 39 34 33 29 25 23 19 18 20 19 17 19 20 24 30 30 32 32 25 25 26 27 26 29 27 23 22 20 22 17 14 12 9 8
45 44 43 47 45 40 37 36 29 24 22 19 20 20 18 16 22 24 28 31 32 31 25 20 20 23 25 30 36 31 29 27 26 23 18 16 13 12
45 42 42 47 49 48 46 43 35 31 29 19 22 22 20 17 25 25 26 31 30 31 26 20 20 17 20 30 38 39 32 32 29 28 26 21 17 17
45 45 46 48 50 51 51 46 39 33 38 38 29 26 21 18 17 25 27 30 27 30 29 23 14 10 16 26 38 38 33 37 37 34 30 28 22 20
38 47 47 48 49 53 56 51 49 44 42 43 41 31 27 24 22 21 27 29 28 26 28 23 21 13 17 16 27 45 45 42 42 38 34 31 28 24
38 42 49 52 52 53 50 59 55 52 50 49 43 33 33 30 27 19 21 27 28 27 29 26 24 15 17 9 22 38 44 41 40 39 37 39 35 31
38 39 44 48 55 55 53 53 56 58 58 53 46 39 36 36 31 28 24 28 34 35 28 28 29 21 19 17 14 27 34 37 37 41 41 41 40 39
39 40 40 43 50 56 59 59 56 52 56 58 53 45 43 41 44 40 32 34 38 38 33 27 28 29 24 18 14 19 23 25 26 33 36 35 38 41
46 46 43 44 46 51 57 61 61 56 53 57 59 55 49 48 48 49 42 41 42 41 39 39 31 34 28 28 22 19 23 26 30 31 30 32 36 37
50 48 46 44 46 49 50 56 59 62 60 55 61 63 59 56 56 56 56 54 49 44 40 41 40 40 43 35 34 29 23 26 27 27 33 35 38 38
50 51 50 48 49 50 53 57 55 58 64 63 59 65 64 64 61 62 60 60 55 51 45 43 42 43 48 44 38 39 34 31 31 30 32 34 36 37
53 54 55 54 54 54 55 56 59 60 60 64 67 63 69 66 68 66 64 57 59 59 53 49 46 46 48 51 48 45 44 44 40 35 34 36 37 37
54 54 58 60 60 58 58 58 57 59 64 63 65 70 71 73 72 71 69 63 62 63 62 58 55 51 55 55 57 54 49 47 47 48 44 41 41 43
58 57 56 56 56 59 59 57 56 57 59 64 68 67 72 79 81 79 76 75 74 72 69 63 62 60 58 62 61 62 59 58 56 55 55 53 50 49
59 57 57 56 55 55 58 59 58 57 59 58 62 68 72 72 78 85 85 84 84 81 79 74 70 66 65 66 62 64 65 67 64 62 62 59 60 58
62 58 58 59 59 58 58 58 59 60 60 60 60 62 64 71 75 79 83 84 86 87 84 82 80 76 71 70 68 72 72 68 67 69 70 70 67 67
61 61 62 62 63 65 64 63 62 62 62 62 62 63 63 63 64 70 78 79 80 83 84 84 86 84 80 75 75 78 80 79 77 77 76 77 77 73
52 57 58 59 59 64 67 69 69 67 66 64 63 64 66 66 64 66 68 74 78 81 82 84 87 87 85 83 83 83 87 87 85 83 81 82 82 80
36 35 37 42 45 48 55 66 69 71 68 66 65 64 66 67 70 70 71 74 77 79 82 83 84 87 87 86 87 89 90 89 86 82 79 80 82 83

GFSNE_250_spd_342.txt.gz
Wind_Speed
28 26 27 23 22 21 17 21 19 18 20 18 20 16 12 13 19 22 21 17 12 15 15 16 18 18 17 13 9 7 4 3 5 7 5 5 5 5
30 27 27 27 27 23 22 24 24 24 18 17 18 16 15 18 20 26 24 21 17 15 15 16 21 22 22 19 15 11 9 7 5 5 7 7 7 8
35 31 27 28 31 29 27 30 26 26 17 19 18 16 17 17 15 15 20 20 22 19 18 18 20 23 25 23 21 17 15 13 11 9 9 9 8 8
32 33 34 32 34 36 32 33 32 28 24 21 20 20 18 17 20 17 18 20 22 23 20 21 17 22 25 28 26 25 22 20 17 16 15 13 13 8
39 37 35 38 39 42 40 39 36 33 26 24 20 20 19 18 18 17 19 22 23 27 24 22 19 17 26 29 31 29 30 26 23 21 19 16 14 12
37 41 42 40 42 47 45 43 39 37 31 25 22 20 21 18 18 19 21 22 23 27 31 24 19 16 20 27 31 33 33 33 32 27 25 21 20 17
35 38 40 42 45 47 50 52 51 44 40 39 32 26 18 20 21 19 23 19 19 25 32 27 19 19 18 23 28 32 36 36 35 36 29 28 25 22
29 30 35 40 45 48 47 52 50 50 49 48 40 35 37 26 24 25 21 22 19 19 24 30 21 22 17 16 18 21 34 42 35 34 32 33 30 28
37 35 33 37 43 47 50 46 48 49 51 52 47 37 38 37 31 29 27 26 20 21 26 28 29 25 20 19 17 24 30 40 46 39 36 35 32 31
45 44 41 39 40 43 49 51 48 48 50 54 51 45 44 41 36 35 35 31 26 24 25 25 31 31 25 25 23 24 24 35 40 44 42 41 41 36
44 44 45 44 42 44 45 51 56 53 51 52 53 53 51 50 44 40 37 39 36 31 27 26 31 36 32 28 25 21 18 26 41 50 46 44 43 44
48 48 44 45 41 45 48 47 52 55 57 55 53 51 55 54 52 46 43 46 44 37 29 29 37 38 35 29 27 26 24 20 36 46 52 51 46 48
51 50 48 47 47 48 49 51 51 51 56 61 61 58 54 54 56 56 54 50 49 42 36 34 40 41 35 36 30 31 30 26 24 33 41 42 44 46
56 54 52 49 51 49 50 55 54 54 54 58 62 63 62 57 56 60 59 56 53 55 51 51 51 46 44 41 37 36 36 36 33 30 34 39 39 41
55 56 56 55 54 54 52 54 55 55 54 57 58 62 64 64 61 62 64 65 60 60 60 59 59 55 49 45 42 40 41 41 39 39 35 35 36 37
58 56 56 59 58 57 57 56 55 56 55 56 58 60 62 65 68 65 67 71 69 69 66 66 66 66 61 54 48 46 45 46 47 44 45 41 40 39
60 61 63 63 62 61 61 61 60 60 59 60 59 60 64 65 69 72 72 73 77 77 76 73 72 70 67 64 59 55 52 51 53 53 51 52 52 46
73 72 72 72 70 67 64 63 65 62 60 61 63 62 62 65 70 72 77 77 82 82 82 80 76 71 69 70 67 63 57 55 56 59 60 59 57 57
78 75 73 72 72 67 61 59 59 61 60 57 58 61 62 66 67 71 74 81 82 86 86 84 84 80 73 70 72 68 65 63 62 63 63 66 67 66
84 80 76 72 69 66 63 62 63 60 60 58 56 58 61 62 65 68 72 78 82 87 87 88 87 86 84 81 77 76 72 69 69 70 67 70 70 74
80 81 81 77 74 70 67 65 64 63 61 61 59 59 61 62 63 64 67 69 76 82 84 88 89 89 89 88 87 85 83 76 77 77 76 76 76 75
63 67 68 73 74 72 68 63 59 61 63 64 64 63 64 65 64 63 63 66 69 73 77 84 85 84 90 92 94 92 90 88 86 84 84 85 84 82
43 42 45 50 54 57 59 54 48 43 43 45 48 55 63 68 67 64 64 64 67 71 72 74 77 81 85 88 91 94 94 94 91 91 91 90 89 90

GFSNE_250_spd_345.txt.gz
Wind_Speed
33 31 30 28 26 24 23 19 17 22 19 21 21 18 16 17 15 11 13 20 25 19 12 12 16 20 18 17 13 11 11 10 6 7 7 6 5 3
32 33 35 33 33 31 28 23 24 24 20 25 23 21 19 20 21 18 14 12 14 16 17 12 11 17 20 20 21 18 14 12 8 6 8 8 8 8
31 34 33 33 34 36 35 33 33 30 28 25 25 21 19 18 19 17 14 13 12 15 19 19 17 16 20 22 24 23 20 17 14 10 9 9 9 9
36 27 32 36 37 39 40 39 37 36 34 34 23 25 20 19 20 19 16 11 12 17 16 22 22 20 19 24 24 26 25 22 19 18 16 14 13 11
44 39 39 39 44 42 43 43 43 43 40 37 33 28 26 22 20 24 19 16 17 16 22 23 27 28 17 15 22 27 29 28 27 24 22 20 18 19
53 53 45 48 44 45 45 47 48 48 43 40 39 32 30 29 25 26 24 19 18 20 20 26 20 25 23 18 15 21 27 32 31 31 29 25 22 20
52 49 50 45 48 46 45 49 51 53 52 45 41 39 36 35 28 26 24 23 26 24 21 20 15 18 21 19 16 14 23 29 32 35 35 29 29 26
49 49 46 42 42 43 43 44 50 52 57 55 50 45 44 45 39 32 27 26 29 27 25 24 19 20 20 21 21 17 15 18 23 35 39 39 33 32
50 47 47 45 42 39 40 41 43 49 54 58 59 58 55 53 46 44 40 37 34 30 30 31 26 24 19 17 23 24 22 22 26 28 40 42 38 39
49 47 47 49 50 47 45 46 47 46 47 54 54 56 56 59 56 51 47 44 39 36 36 35 35 28 25 22 22 26 26 24 23 26 33 44 41 40
52 52 50 49 50 48 47 47 52 51 48 50 55 54 55 58 60 59 53 46 40 39 38 39 38 32 28 29 28 28 27 27 25 25 26 37 45 45
51 53 52 49 50 49 51 52 52 53 53 51 52 55 56 58 59 60 59 57 53 46 44 44 43 38 29 31 27 31 33 34 28 25 23 26 42 54
53 53 53 50 51 49 52 55 56 53 50 55 53 54 56 59 59 58 60 61 61 57 51 50 48 45 37 29 22 19 27 21 31 32 29 28 31 43
58 57 54 53 53 56 53 54 57 57 54 54 56 59 59 60 61 63 62 61 62 62 55 55 51 49 40 36 33 21 22 23 24 37 37 34 35 37
60 60 60 59 58 58 58 58 58 60 58 57 58 61 63 61 60 64 65 66 64 62 63 62 61 56 59 57 48 44 45 42 30 40 38 35 34 41
67 64 64 65 64 64 62 61 63 62 61 61 61 63 64 65 65 66 67 67 69 69 66 66 67 65 64 68 61 56 56 54 51 58 57 51 47 46
76 74 71 71 71 69 68 67 67 67 64 62 62 61 62 63 65 66 69 69 67 75 73 70 72 73 72 71 73 69 63 62 64 62 59 54 53 53
82 82 81 76 74 74 74 73 72 71 69 64 62 65 65 65 64 66 66 71 71 71 76 78 77 77 81 80 78 76 74 75 73 71 68 63 60 61
72 70 75 81 83 80 79 78 78 78 75 73 71 70 69 67 68 66 67 71 72 76 75 79 81 83 84 85 88 82 80 79 80 79 77 74 68 66
74 70 68 67 69 75 80 82 83 82 79 76 73 69 69 68 63 61 65 67 73 76 80 80 78 84 89 90 88 89 91 85 82 82 83 78 76 72
66 67 67 68 67 66 68 71 76 80 82 77 72 67 63 64 62 61 63 65 67 71 78 80 82 83 87 91 92 95 91 92 90 88 85 79 79 82
47 50 54 57 60 64 66 65 67 68 73 76 71 67 62 63 61 61 61 62 62 65 68 77 79 82 84 80 85 87 91 94 95 93 91 90 87 86
25 28 32 38 43 48 51 54 55 58 59 61 60 57 59 56 55 56 61 65 63 63 66 70 75 76 73 74 75 79 72 85 94 98 98 94 94 98